This demonstration page uses our WeatherBlox Daily Observations layout. Learn more.

Left ArrowRight Arrow

38.88101, -77.10428

Hourly Observations for July 20, 2020

Temp ( °F °C ) Dew Point ( °F °C ) Humidity (%) Winds ( mph kmh ) Pressure ( in mb ) Visibility ( mi km ) Precip ( " mm )
12:52 am 00:52 Partly Cloudy 85 29.4 76 24.4 75 75 S 7 11 29.88 1012 10 16.0934 0 0
1:52 am 01:52 Partly Cloudy 84 28.9 74 23.3 72 72 SSW 6 9 29.87 1011 10 16.0934 0 0
2:52 am 02:52 Partly Cloudy 84 28.9 74 23.3 72 72 SSW 6 9 29.87 1012 10 16.0934 0 0
3:52 am 03:52 Mostly Cloudy 83 28.3 74 23.3 74 74 S 5 7 29.89 1012 10 16.0934 0 0
4:52 am 04:52 Mostly Cloudy 83 28.3 74 23.3 74 74 SSW 3 6 29.9 1013 10 16.0934 0 0
5:52 am 05:52 Mostly Cloudy 86 30 69 20.6 57 57 VRB 6 9 29.92 1013 10 16.0934 0 0
6:52 am 06:52 Mostly Cloudy 85 29.4 73 22.8 68 68 Calm 29.93 1013 10 16.0934 0 0
7:52 am 07:52 Mostly Cloudy 87 30.6 69 20.6 55 55 W 5 7 29.93 1014 10 16.0934 0 0
8:52 am 08:52 Mostly Cloudy 90 32.2 69 20.6 50 50 WNW 6 9 29.94 1014 10 16.0934 0 0
9:52 am 09:52 Mostly Cloudy 92 33.3 68 20 46 46 NW 9 15 29.94 1014 10 16.0934 0 0
10:52 am 10:52 Mostly Cloudy 92 33.3 68 20 46 46 W 6 9 29.94 1014 10 16.0934 0 0
11:52 am 11:52 Mostly Cloudy 93 33.9 69 20.6 46 46 WNW 13 20 29.93 1014 10 16.0934 0 0
12:52 pm 12:52 Mostly Cloudy 96 35.6 70 21.1 43 43 WNW 9 15 29.93 1014 10 16.0934 0 0
1:52 pm 13:52 Mostly Cloudy 96 35.6 71 21.7 44 44 W 9 15 29.91 1013 10 16.0934 0 0
2:52 pm 14:52 Mostly Cloudy 96 35.6 71 21.7 44 44 W 10 17 29.9 1013 10 16.0934 0 0
3:52 pm 15:52 Mostly Cloudy 98 36.7 73 22.8 45 45 S 8 13 29.88 1012 10 16.0934 0 0
4:47 pm 16:47 Mostly Cloudy with Nearby Thunderstorms 99 37 70 21 39 39 S 10 17 29.86 1011 10 16.0934 0 0
4:52 pm 16:52 Mostly Cloudy with Nearby Thunderstorms 96 35.6 71 21.7 44 44 VRB 3 6 29.85 1011 10 16.0934 0 0
5:31 pm 17:31 Cloudy with Nearby Thunderstorms 91 32.8 75 23.9 59 59 WNW 13 20 29.87 1011 5 8.0467 0.001 0.001
5:40 pm 17:40 Mostly Cloudy with Nearby Thunderstorms 90 32.2 73 22.8 58 58 NW 16 26 29.87 1011 10 16.0934 0.001 0.001
5:44 pm 17:44 Mostly Cloudy with Light Thunderstorms 90 32.2 72 22.2 56 56 WNW 14 22 29.88 1012 10 16.0934 0.001 0.001
5:46 pm 17:46 Mostly Cloudy with Light Thunderstorms 90 32 72 22 55 55 WNW 10 17 29.88 1012 10 16.0934 0.001 0.001
5:52 pm 17:52 Mostly Cloudy with Light Thunderstorms 88 31.1 71 21.7 57 57 Calm 29.87 1012 10 16.0934 0.03 0.762
6:18 pm 18:18 Mostly Cloudy with Light Thunderstorms 84 28.9 71 21.7 65 65 Calm 29.89 1012 7 11.26538 0.02 0.508
6:52 pm 18:52 Mostly Cloudy with Light Thunderstorms 80 26.7 72 22.2 76 76 SW 15 24 29.88 1012 10 16.0934 0.02 0.508
7:12 pm 19:12 Mostly Cloudy with Nearby Thunderstorms 81 27.2 73 22.8 77 77 SSE 13 20 29.9 1012 10 16.0934 0.001 0.001
7:17 pm 19:17 Mostly Cloudy with Nearby Thunderstorms 82 27.8 72 22.2 72 72 S 13 20 29.9 1012 10 16.0934 0.001 0.001
7:38 pm 19:38 Mostly Cloudy 81 27.2 73 22.8 77 77 SSE 16 26 29.91 1013 10 16.0934 0.001 0.001
7:52 pm 19:52 Mostly Cloudy 80 26.7 73 22.8 79 79 S 9 15 29.91 1013 10 16.0934 0.001 0.001
7:54 pm 19:54 Sunny with Nearby Thunderstorms 80 26.7 73 22.8 79 79 S 8 13 29.91 1013 10 16.0934 0 0
8:05 pm 20:05 Mostly Cloudy with Thunderstorms 80 26.7 72 22.2 76 76 SSE 5 7 29.91 1013 10 16.0934 0 0
8:35 pm 20:35 Mostly Cloudy with Light Thunderstorms 80 26.7 73 22.8 79 79 S 10 17 29.92 1013 4 6.43736 0.02 0.508
8:52 pm 20:52 Mostly Cloudy with Nearby Thunderstorms 79 26.1 71 21.7 77 77 W 6 9 29.91 1013 5 8.0467 0.08 2.032
8:57 pm 20:57 Cloudy with Light Rain 79 26.1 72 22.2 79 79 S 6 9 29.92 1013 6 9.65604 0.01 0.254
8:59 pm 20:59 Cloudy with Light Thunderstorms 78 25.6 72 22.2 82 82 Calm 29.92 1013 7 11.26538 0.01 0.254
9:21 pm 21:21 Mostly Cloudy with Nearby Thunderstorms 81 27.2 72 22.2 74 74 Calm 29.93 1013 10 16.0934 0.02 0.508
9:37 pm 21:37 Mostly Cloudy 80 26.7 72 22.2 76 76 Calm 29.92 1013 10 16.0934 0.02 0.508
9:52 pm 21:52 Mostly Cloudy with Light Rain 81 27.2 71 21.7 72 72 Calm 29.92 1013 10 16.0934 0.02 0.508
10:52 pm 22:52 Mostly Cloudy 81 27.2 72 22.2 74 74 SSE 10 17 29.93 1014 10 16.0934 0.001 0.001
11:52 pm 23:52 Mostly Cloudy 78 25.6 73 22.8 85 85 S 5 7 29.95 1014 10 16.0934 0 0

Powered by AerisWeather